Time,TemperatureF,DewpointF,PressureIn,WindDirection,WindDirectionDegrees,WindSpeedMPH,WindSpeedGustMPH,Humidity,HourlyPrecipIn,Conditions,Clouds,dailyrainin,SoftwareType,DateUTC
2013-09-13 00:01:00,67.3,66.1,29.68,SW,233,0.0,0.0,96,0.00,,---,0.00,VWS V14.01,2013-09-13 04:01:00,
2013-09-13 00:02:00,67.3,66.1,29.68,SW,233,0.0,0.0,96,0.00,,---,0.00,VWS V14.01,2013-09-13 04:02:00,
2013-09-13 00:03:00,67.3,66.1,29.68,SW,233,0.0,0.0,96,0.00,,---,0.00,VWS V14.01,2013-09-13 04:03:00,
2013-09-13 00:08:00,67.3,66.1,29.68,SW,233,0.0,0.0,96,0.00,,---,0.00,VWS V14.01,2013-09-13 04:08:00,
2013-09-13 00:10:00,67.1,65.9,29.68,SW,233,0.0,0.0,96,0.00,,---,0.00,VWS V14.01,2013-09-13 04:10:00,
2013-09-13 00:14:00,67.1,65.9,29.69,SW,233,0.0,0.0,96,0.00,,---,0.00,VWS V14.01,2013-09-13 04:14:00,
2013-09-13 00:19:00,67.1,65.9,29.68,SW,233,0.0,0.0,96,0.00,,---,0.00,VWS V14.01,2013-09-13 04:19:00,
2013-09-13 00:24:00,67.1,65.9,29.68,SW,233,0.0,0.0,96,0.00,,---,0.00,VWS V14.01,2013-09-13 04:24:00,
2013-09-13 00:25:00,67.1,65.9,29.68,SW,233,0.0,0.0,96,0.00,,---,0.00,VWS V14.01,2013-09-13 04:25:00,
2013-09-13 00:30:00,67.1,65.9,29.68,SW,233,0.0,0.0,96,0.00,,---,0.00,VWS V14.01,2013-09-13 04:30:00,
2013-09-13 00:36:00,67.1,65.9,29.68,SW,233,0.0,0.0,96,0.00,,---,0.00,VWS V14.01,2013-09-13 04:36:00,
2013-09-13 00:41:00,67.1,66.2,29.68,SW,233,0.0,0.0,97,0.00,,---,0.00,VWS V14.01,2013-09-13 04:41:00,
2013-09-13 00:47:00,67.1,65.9,29.67,SW,233,0.0,0.0,96,0.00,,---,0.00,VWS V14.01,2013-09-13 04:47:00,
2013-09-13 00:52:00,66.9,65.7,29.67,SW,233,0.0,0.0,96,0.00,,---,0.00,VWS V14.01,2013-09-13 04:52:00,
2013-09-13 00:58:00,66.9,66.0,29.67,SW,233,0.0,0.0,97,0.00,,---,0.00,VWS V14.01,2013-09-13 04:58:00,
2013-09-13 01:03:00,66.9,66.0,29.67,SW,233,0.0,0.0,97,0.00,,---,0.00,VWS V14.01,2013-09-13 05:03:00,
2013-09-13 01:08:00,66.9,66.0,29.67,SW,233,0.0,0.0,97,0.00,,---,0.00,VWS V14.01,2013-09-13 05:08:00,
2013-09-13 01:14:00,67.1,66.2,29.66,SW,233,0.0,0.0,97,0.00,,---,0.00,VWS V14.01,2013-09-13 05:14:00,
2013-09-13 01:20:00,67.1,66.2,29.66,SW,233,0.0,0.0,97,0.00,,---,0.00,VWS V14.01,2013-09-13 05:20:00,
2013-09-13 01:25:00,66.9,66.0,29.66,SW,233,0.0,0.0,97,0.00,,---,0.00,VWS V14.01,2013-09-13 05:25:00,
2013-09-13 01:31:00,66.9,66.0,29.66,SW,233,0.0,0.0,97,0.00,,---,0.00,VWS V14.01,2013-09-13 05:31:00,
2013-09-13 01:36:00,66.9,66.0,29.65,SW,233,0.0,0.0,97,0.00,,---,0.00,VWS V14.01,2013-09-13 05:36:00,
2013-09-13 01:42:00,66.9,66.0,29.65,SW,233,0.0,0.0,97,0.00,,---,0.00,VWS V14.01,2013-09-13 05:42:00,
2013-09-13 01:47:00,66.9,66.0,29.65,SW,233,0.0,0.0,97,0.00,,---,0.00,VWS V14.01,2013-09-13 05:47:00,
2013-09-13 01:52:00,66.9,66.0,29.65,SW,233,0.0,0.0,97,0.00,,---,0.00,VWS V14.01,2013-09-13 05:52:00,
2013-09-13 01:57:00,66.9,66.0,29.64,SW,233,0.0,0.0,97,0.00,,---,0.00,VWS V14.01,2013-09-13 05:57:00,
2013-09-13 02:02:00,66.9,66.0,29.64,SW,233,0.0,0.0,97,0.00,,---,0.00,VWS V14.01,2013-09-13 06:02:00,
2013-09-13 02:08:00,66.9,66.0,29.63,SW,233,0.0,0.0,97,0.00,,---,0.00,VWS V14.01,2013-09-13 06:08:00,
2013-09-13 02:13:00,66.8,65.9,29.63,SW,233,0.0,0.0,97,0.00,,---,0.00,VWS V14.01,2013-09-13 06:13:00,
2013-09-13 02:18:00,66.8,65.9,29.63,SW,233,0.0,0.0,97,0.00,,---,0.00,VWS V14.01,2013-09-13 06:18:00,
2013-09-13 02:23:00,66.8,65.9,29.62,SW,233,0.0,0.0,97,0.00,,---,0.00,VWS V14.01,2013-09-13 06:23:00,
2013-09-13 02:28:00,66.8,65.9,29.62,SW,233,0.0,0.0,97,0.00,,---,0.00,VWS V14.01,2013-09-13 06:28:00,
2013-09-13 02:34:00,66.6,65.7,29.62,SW,233,0.0,0.0,97,0.00,,---,0.00,VWS V14.01,2013-09-13 06:34:00,
2013-09-13 02:39:00,66.6,65.7,29.62,SW,233,0.0,0.0,97,0.00,,---,0.00,VWS V14.01,2013-09-13 06:39:00,
2013-09-13 02:44:00,66.6,65.7,29.61,SW,233,0.0,0.0,97,0.00,,---,0.00,VWS V14.01,2013-09-13 06:44:00,
2013-09-13 02:50:00,66.6,65.7,29.61,SW,233,0.0,0.0,97,0.00,,---,0.00,VWS V14.01,2013-09-13 06:50:00,
2013-09-13 02:55:00,66.6,65.7,29.61,SW,233,0.0,0.0,97,0.00,,---,0.00,VWS V14.01,2013-09-13 06:55:00,
2013-09-13 03:00:00,66.6,65.7,29.61,SW,233,0.0,0.0,97,0.00,,---,0.00,VWS V14.01,2013-09-13 07:00:00,
2013-09-13 03:05:00,66.6,65.7,29.61,SW,233,0.0,0.0,97,0.00,,---,0.00,VWS V14.01,2013-09-13 07:05:00,
2013-09-13 03:11:00,66.4,65.5,29.61,SW,233,0.0,0.0,97,0.00,,---,0.00,VWS V14.01,2013-09-13 07:11:00,
2013-09-13 03:16:00,66.4,65.5,29.61,SW,233,0.0,0.0,97,0.00,,---,0.00,VWS V14.01,2013-09-13 07:16:00,
2013-09-13 03:21:00,66.4,65.5,29.61,SW,233,0.0,0.0,97,0.00,,---,0.00,VWS V14.01,2013-09-13 07:21:00,
2013-09-13 03:27:00,66.4,65.5,29.61,SW,233,0.0,0.0,97,0.00,,---,0.00,VWS V14.01,2013-09-13 07:27:00,
2013-09-13 03:32:00,66.4,65.5,29.62,SW,233,0.0,0.0,97,0.00,,---,0.00,VWS V14.01,2013-09-13 07:32:00,
2013-09-13 03:37:00,66.4,65.5,29.61,SW,233,0.0,0.0,97,0.00,,---,0.00,VWS V14.01,2013-09-13 07:37:00,
2013-09-13 03:42:00,66.4,65.5,29.61,SW,233,0.0,0.0,97,0.00,,---,0.00,VWS V14.01,2013-09-13 07:42:00,
2013-09-13 03:47:00,66.4,65.5,29.62,SW,233,0.0,0.0,97,0.00,,---,0.00,VWS V14.01,2013-09-13 07:47:00,
2013-09-13 03:52:00,66.4,65.5,29.62,SW,233,0.0,0.0,97,0.00,,---,0.00,VWS V14.01,2013-09-13 07:52:00,
2013-09-13 03:58:00,66.4,65.5,29.62,SW,233,0.0,0.0,97,0.00,,---,0.00,VWS V14.01,2013-09-13 07:58:00,
2013-09-13 04:03:00,66.4,65.5,29.61,SW,233,0.0,0.0,97,0.00,,---,0.00,VWS V14.01,2013-09-13 08:03:00,
2013-09-13 04:08:00,66.4,65.5,29.61,SW,233,0.0,0.0,97,0.00,,---,0.00,VWS V14.01,2013-09-13 08:08:00,
2013-09-13 04:13:00,66.6,65.7,29.61,SW,233,0.0,0.0,97,0.00,,---,0.00,VWS V14.01,2013-09-13 08:13:00,
2013-09-13 04:19:00,66.6,65.7,29.61,SW,233,0.0,0.0,97,0.00,,---,0.00,VWS V14.01,2013-09-13 08:19:00,
2013-09-13 04:24:00,66.6,65.7,29.62,SW,233,0.0,0.0,97,0.00,,---,0.00,VWS V14.01,2013-09-13 08:24:00,
2013-09-13 04:29:00,66.6,65.7,29.63,SW,233,0.0,0.0,97,0.00,,---,0.00,VWS V14.01,2013-09-13 08:29:00,
2013-09-13 04:34:00,66.4,65.5,29.63,SW,233,0.0,0.0,97,0.00,,---,0.00,VWS V14.01,2013-09-13 08:34:00,
2013-09-13 04:39:00,66.4,65.5,29.63,SW,233,0.0,0.0,97,0.00,,---,0.00,VWS V14.01,2013-09-13 08:39:00,
2013-09-13 04:44:00,66.4,65.5,29.62,SW,233,0.0,0.0,97,0.00,,---,0.00,VWS V14.01,2013-09-13 08:44:00,
2013-09-13 04:49:00,66.4,65.5,29.62,SW,233,0.0,0.0,97,0.00,,---,0.00,VWS V14.01,2013-09-13 08:49:00,
2013-09-13 04:54:00,66.4,65.5,29.63,SW,233,0.0,0.0,97,0.00,,---,0.00,VWS V14.01,2013-09-13 08:54:00,
2013-09-13 05:00:00,66.4,65.5,29.63,SW,233,0.0,0.0,97,0.00,,---,0.00,VWS V14.01,2013-09-13 09:00:00,
2013-09-13 05:05:00,66.6,65.7,29.63,SW,233,0.0,0.0,97,0.00,,---,0.00,VWS V14.01,2013-09-13 09:05:00,
2013-09-13 05:11:00,66.6,65.7,29.63,SW,233,0.0,0.0,97,0.00,,---,0.00,VWS V14.01,2013-09-13 09:11:00,
2013-09-13 05:16:00,66.4,65.5,29.63,SW,233,0.0,0.0,97,0.00,,---,0.00,VWS V14.01,2013-09-13 09:16:00,
2013-09-13 05:21:00,66.4,65.5,29.62,SW,233,0.0,0.0,97,0.00,,---,0.00,VWS V14.01,2013-09-13 09:21:00,
2013-09-13 05:26:00,66.4,65.5,29.62,SW,233,0.0,0.0,97,0.00,,---,0.00,VWS V14.01,2013-09-13 09:26:00,
2013-09-13 05:32:00,66.4,65.5,29.62,SW,233,0.0,0.0,97,0.00,,---,0.00,VWS V14.01,2013-09-13 09:32:00,
2013-09-13 05:37:00,66.4,65.5,29.62,SW,233,0.0,0.0,97,0.00,,---,0.00,VWS V14.01,2013-09-13 09:37:00,
2013-09-13 05:43:00,66.3,65.4,29.61,SW,233,0.0,0.0,97,0.00,,---,0.00,VWS V14.01,2013-09-13 09:43:00,
2013-09-13 05:48:00,66.3,65.4,29.61,SW,233,0.0,0.0,97,0.00,,---,0.00,VWS V14.01,2013-09-13 09:48:00,
2013-09-13 05:53:00,66.3,65.4,29.61,SW,233,0.0,0.0,97,0.00,,---,0.00,VWS V14.01,2013-09-13 09:53:00,
2013-09-13 05:58:00,66.3,65.4,29.61,SW,233,0.0,0.0,97,0.00,,---,0.00,VWS V14.01,2013-09-13 09:58:00,
2013-09-13 06:04:00,66.1,65.2,29.62,SW,233,0.0,0.0,97,0.00,,---,0.00,VWS V14.01,2013-09-13 10:04:00,
2013-09-13 06:09:00,66.1,65.2,29.62,SW,233,0.0,0.0,97,0.00,,---,0.00,VWS V14.01,2013-09-13 10:09:00,
2013-09-13 06:14:00,66.0,65.1,29.62,SW,233,0.0,0.0,97,0.00,,---,0.00,VWS V14.01,2013-09-13 10:14:00,
2013-09-13 06:19:00,66.0,65.1,29.63,SW,233,0.0,0.0,97,0.00,,---,0.00,VWS V14.01,2013-09-13 10:19:00,
2013-09-13 06:24:00,66.0,65.1,29.63,SW,233,0.0,0.0,97,0.00,,---,0.00,VWS V14.01,2013-09-13 10:24:00,
2013-09-13 06:29:00,65.8,64.9,29.63,SW,233,0.0,0.0,97,0.00,,---,0.00,VWS V14.01,2013-09-13 10:29:00,
2013-09-13 06:34:00,65.8,64.9,29.63,SW,233,0.0,0.0,97,0.00,,---,0.00,VWS V14.01,2013-09-13 10:34:00,
2013-09-13 06:39:00,65.6,64.7,29.63,SW,233,0.0,0.0,97,0.00,,---,0.00,VWS V14.01,2013-09-13 10:39:00,
2013-09-13 06:44:00,65.6,64.7,29.63,SW,233,0.0,0.0,97,0.00,,---,0.00,VWS V14.01,2013-09-13 10:44:00,
2013-09-13 06:49:00,65.5,64.6,29.64,SW,233,0.0,0.0,97,0.00,,---,0.00,VWS V14.01,2013-09-13 10:49:00,
2013-09-13 06:54:00,65.5,64.6,29.64,SW,233,0.0,0.0,97,0.00,,---,0.00,VWS V14.01,2013-09-13 10:54:00,
2013-09-13 06:59:00,65.5,64.6,29.64,SW,233,0.0,0.0,97,0.00,,---,0.00,VWS V14.01,2013-09-13 10:59:00,
2013-09-13 07:04:00,65.5,64.6,29.64,SW,233,0.0,0.0,97,0.00,,---,0.00,VWS V14.01,2013-09-13 11:04:00,
2013-09-13 07:09:00,65.6,64.7,29.64,SW,233,0.0,0.0,97,0.00,,---,0.00,VWS V14.01,2013-09-13 11:09:00,
2013-09-13 07:14:00,65.6,64.7,29.63,SW,233,0.0,0.0,97,0.00,,---,0.00,VWS V14.01,2013-09-13 11:14:00,
2013-09-13 07:19:00,65.5,64.6,29.63,SW,233,0.0,0.0,97,0.00,,---,0.00,VWS V14.01,2013-09-13 11:19:00,
2013-09-13 07:24:00,65.5,64.6,29.64,SW,233,0.0,0.0,97,0.00,,---,0.00,VWS V14.01,2013-09-13 11:24:00,
2013-09-13 07:29:00,65.5,64.6,29.64,SW,233,0.0,0.0,97,0.00,,---,0.00,VWS V14.01,2013-09-13 11:29:00,
2013-09-13 07:34:00,65.3,64.4,29.63,SW,233,0.0,0.0,97,0.00,,---,0.00,VWS V14.01,2013-09-13 11:34:00,
2013-09-13 07:39:00,65.3,64.4,29.64,SW,233,0.0,0.0,97,0.00,,---,0.00,VWS V14.01,2013-09-13 11:39:00,
2013-09-13 07:44:00,65.3,64.4,29.64,SW,233,0.0,0.0,97,0.00,,---,0.00,VWS V14.01,2013-09-13 11:44:00,
2013-09-13 07:49:00,65.3,64.4,29.64,SW,233,0.0,0.0,97,0.00,,---,0.00,VWS V14.01,2013-09-13 11:49:00,
2013-09-13 07:54:00,65.3,64.4,29.63,SW,233,0.0,0.0,97,0.00,,---,0.00,VWS V14.01,2013-09-13 11:54:00,
2013-09-13 07:59:00,65.3,64.4,29.63,SW,233,0.0,0.0,97,0.00,,---,0.00,VWS V14.01,2013-09-13 11:59:00,
2013-09-13 08:04:00,65.3,64.4,29.63,SW,233,0.0,0.0,97,0.00,,---,0.00,VWS V14.01,2013-09-13 12:04:00,
2013-09-13 08:09:00,65.3,64.4,29.64,SW,233,0.0,0.0,97,0.00,,---,0.00,VWS V14.01,2013-09-13 12:09:00,
2013-09-13 08:14:00,65.5,64.6,29.64,SW,233,0.0,0.0,97,0.00,,---,0.00,VWS V14.01,2013-09-13 12:14:00,
2013-09-13 08:19:00,65.6,65.0,29.64,SW,233,0.0,0.0,98,0.00,,---,0.00,VWS V14.01,2013-09-13 12:19:00,
2013-09-13 08:24:00,65.8,65.2,29.64,SW,233,0.0,0.0,98,0.00,,---,0.00,VWS V14.01,2013-09-13 12:24:00,
2013-09-13 08:29:00,66.1,65.5,29.64,SW,233,0.0,1.0,98,0.00,,---,0.00,VWS V14.01,2013-09-13 12:29:00,
2013-09-13 08:35:00,66.3,65.7,29.63,SW,233,0.0,0.0,98,0.00,,---,0.00,VWS V14.01,2013-09-13 12:35:00,
2013-09-13 08:40:00,66.4,65.8,29.63,SW,233,0.0,0.0,98,0.00,,---,0.00,VWS V14.01,2013-09-13 12:40:00,
2013-09-13 08:45:00,66.4,65.8,29.63,NW,304,0.0,0.0,98,0.00,,---,0.00,VWS V14.01,2013-09-13 12:45:00,
2013-09-13 08:50:00,66.6,66.0,29.64,NW,304,0.0,0.0,98,0.00,,---,0.00,VWS V14.01,2013-09-13 12:50:00,
2013-09-13 08:55:00,66.4,65.8,29.64,NW,304,0.0,0.0,98,0.00,,---,0.00,VWS V14.01,2013-09-13 12:55:00,
2013-09-13 09:00:00,66.6,66.0,29.65,North,355,1.0,1.0,98,0.00,,---,0.00,VWS V14.01,2013-09-13 13:00:00,
2013-09-13 09:05:00,66.8,66.2,29.65,North,355,0.0,0.0,98,0.00,,---,0.00,VWS V14.01,2013-09-13 13:05:00,
2013-09-13 09:10:00,66.8,66.2,29.64,North,355,0.0,0.0,98,0.00,,---,0.00,VWS V14.01,2013-09-13 13:10:00,
2013-09-13 09:15:00,66.6,66.0,29.64,North,355,0.0,0.0,98,0.00,,---,0.00,VWS V14.01,2013-09-13 13:15:00,
2013-09-13 09:20:00,66.6,66.0,29.64,North,355,0.0,0.0,98,0.00,,---,0.00,VWS V14.01,2013-09-13 13:20:00,
2013-09-13 09:25:00,66.8,66.2,29.64,North,355,0.0,0.0,98,0.00,,---,0.00,VWS V14.01,2013-09-13 13:25:00,
2013-09-13 09:31:00,66.9,66.3,29.64,North,355,0.0,0.0,98,0.00,,---,0.00,VWS V14.01,2013-09-13 13:31:00,
2013-09-13 09:36:00,66.8,65.9,29.64,North,355,0.0,0.0,97,0.00,,---,0.00,VWS V14.01,2013-09-13 13:36:00,
2013-09-13 09:41:00,66.8,65.9,29.64,North,355,0.0,0.0,97,0.00,,---,0.00,VWS V14.01,2013-09-13 13:41:00,
2013-09-13 09:47:00,67.1,66.5,29.64,NNW,345,0.0,0.0,98,0.00,,---,0.00,VWS V14.01,2013-09-13 13:47:00,
2013-09-13 09:53:00,67.1,66.2,29.64,North,360,0.0,0.0,97,0.00,,---,0.00,VWS V14.01,2013-09-13 13:53:00,
2013-09-13 09:59:00,67.1,66.2,29.64,North,360,0.0,0.0,97,0.00,,---,0.00,VWS V14.01,2013-09-13 13:59:00,
2013-09-13 10:04:00,67.4,66.8,29.64,NNW,335,0.0,0.0,98,0.00,,---,0.00,VWS V14.01,2013-09-13 14:04:00,
2013-09-13 10:09:00,67.4,66.5,29.64,North,5,0.0,0.0,97,0.00,,---,0.00,VWS V14.01,2013-09-13 14:09:00,
2013-09-13 10:14:00,67.6,66.7,29.64,NNE,28,0.0,1.0,97,0.00,,---,0.00,VWS V14.01,2013-09-13 14:14:00,
2013-09-13 10:20:00,67.3,66.1,29.63,NNE,28,0.0,0.0,96,0.00,,---,0.00,VWS V14.01,2013-09-13 14:20:00,
2013-09-13 10:25:00,67.4,66.5,29.63,NNE,12,0.0,0.0,97,0.00,,---,0.00,VWS V14.01,2013-09-13 14:25:00,
2013-09-13 10:30:00,67.4,66.2,29.63,North,5,0.0,1.0,96,0.00,,---,0.00,VWS V14.01,2013-09-13 14:30:00,
2013-09-13 10:35:00,67.6,66.1,29.63,North,355,0.0,0.0,95,0.00,,---,0.00,VWS V14.01,2013-09-13 14:35:00,
2013-09-13 10:41:00,67.8,65.7,29.63,North,360,0.0,0.0,93,0.00,,---,0.00,VWS V14.01,2013-09-13 14:41:00,
2013-09-13 10:46:00,67.9,65.2,29.63,North,360,0.0,0.0,91,0.00,,---,0.00,VWS V14.01,2013-09-13 14:46:00,
2013-09-13 10:51:00,68.4,65.4,29.62,North,360,0.0,0.0,90,0.00,,---,0.00,VWS V14.01,2013-09-13 14:51:00,
2013-09-13 10:57:00,68.6,64.6,29.63,North,360,0.0,0.0,87,0.00,,---,0.00,VWS V14.01,2013-09-13 14:57:00,
2013-09-13 11:02:00,68.8,64.8,29.63,NNE,15,0.0,2.0,87,0.00,,---,0.00,VWS V14.01,2013-09-13 15:02:00,
2013-09-13 11:08:00,69.1,63.0,29.64,North,355,0.0,0.0,81,0.00,,---,0.00,VWS V14.01,2013-09-13 15:08:00,
2013-09-13 11:13:00,69.8,64.4,29.64,North,355,0.0,0.0,83,0.00,,---,0.00,VWS V14.01,2013-09-13 15:13:00,
2013-09-13 11:19:00,70.1,64.0,29.64,North,5,0.0,0.0,81,0.00,,---,0.00,VWS V14.01,2013-09-13 15:19:00,
2013-09-13 11:24:00,70.1,63.3,29.64,North,5,0.0,0.0,79,0.00,,---,0.00,VWS V14.01,2013-09-13 15:24:00,
2013-09-13 11:29:00,69.9,63.5,29.64,North,360,0.0,0.0,80,0.00,,---,0.00,VWS V14.01,2013-09-13 15:29:00,
2013-09-13 11:34:00,69.9,63.5,29.64,WSW,248,0.0,1.0,80,0.00,,---,0.00,VWS V14.01,2013-09-13 15:34:00,
2013-09-13 11:39:00,69.9,62.7,29.64,WSW,248,0.0,0.0,78,0.00,,---,0.00,VWS V14.01,2013-09-13 15:39:00,
2013-09-13 11:44:00,70.3,63.8,29.64,North,349,0.0,1.0,80,0.00,,---,0.00,VWS V14.01,2013-09-13 15:44:00,
2013-09-13 11:50:00,70.3,63.1,29.64,NNW,340,0.0,0.0,78,0.00,,---,0.00,VWS V14.01,2013-09-13 15:50:00,
2013-09-13 11:55:00,70.1,62.9,29.64,NNW,340,0.0,0.0,78,0.00,,---,0.00,VWS V14.01,2013-09-13 15:55:00,
2013-09-13 12:01:00,70.1,63.3,29.64,NNE,22,0.0,1.0,79,0.00,,---,0.00,VWS V14.01,2013-09-13 16:01:00,
2013-09-13 12:06:00,69.9,62.0,29.64,NNW,327,0.0,0.0,76,0.00,,---,0.00,VWS V14.01,2013-09-13 16:06:00,
2013-09-13 12:11:00,69.8,62.3,29.64,NNW,336,0.0,0.0,77,0.00,,---,0.00,VWS V14.01,2013-09-13 16:11:00,
2013-09-13 12:16:00,69.6,61.7,29.64,NNW,341,0.0,1.0,76,0.00,,---,0.00,VWS V14.01,2013-09-13 16:16:00,
2013-09-13 12:21:00,69.4,61.9,29.64,NE,40,0.0,0.0,77,0.00,,---,0.00,VWS V14.01,2013-09-13 16:21:00,
2013-09-13 12:26:00,69.1,60.5,29.65,NW,318,0.0,1.0,74,0.00,,---,0.00,VWS V14.01,2013-09-13 16:26:00,
2013-09-13 12:31:00,68.8,59.8,29.65,WSW,246,0.0,2.0,73,0.00,,---,0.00,VWS V14.01,2013-09-13 16:31:00,
2013-09-13 12:36:00,68.6,61.1,29.64,WSW,246,0.0,0.0,77,0.00,,---,0.00,VWS V14.01,2013-09-13 16:36:00,
2013-09-13 12:41:00,68.4,60.5,29.64,WSW,246,1.0,1.0,76,0.00,,---,0.00,VWS V14.01,2013-09-13 16:41:00,
2013-09-13 12:47:00,68.4,60.9,29.64,WSW,246,0.0,0.0,77,0.00,,---,0.00,VWS V14.01,2013-09-13 16:47:00,
2013-09-13 12:52:00,68.4,60.2,29.64,SW,232,0.0,0.0,75,0.00,,---,0.00,VWS V14.01,2013-09-13 16:52:00,
2013-09-13 12:58:00,68.4,60.9,29.64,North,355,0.0,0.0,77,0.00,,---,0.00,VWS V14.01,2013-09-13 16:58:00,
2013-09-13 13:04:00,68.6,61.1,29.64,North,360,0.0,0.0,77,0.00,,---,0.00,VWS V14.01,2013-09-13 17:04:00,
2013-09-13 13:09:00,68.6,61.1,29.64,North,5,0.0,0.0,77,0.00,,---,0.00,VWS V14.01,2013-09-13 17:09:00,
2013-09-13 13:14:00,68.8,61.3,29.64,NNW,348,0.0,0.0,77,0.00,,---,0.00,VWS V14.01,2013-09-13 17:14:00,
2013-09-13 13:19:00,68.8,61.7,29.64,North,355,0.0,0.0,78,0.00,,---,0.00,VWS V14.01,2013-09-13 17:19:00,
2013-09-13 13:24:00,68.8,61.3,29.64,North,355,0.0,0.0,77,0.00,,---,0.00,VWS V14.01,2013-09-13 17:24:00,
2013-09-13 13:29:00,68.8,60.9,29.64,North,355,0.0,0.0,76,0.00,,---,0.00,VWS V14.01,2013-09-13 17:29:00,
2013-09-13 13:34:00,68.8,61.3,29.64,North,355,0.0,0.0,77,0.00,,---,0.00,VWS V14.01,2013-09-13 17:34:00,
2013-09-13 13:39:00,68.6,61.1,29.64,NW,315,0.0,0.0,77,0.00,,---,0.00,VWS V14.01,2013-09-13 17:39:00,
2013-09-13 13:44:00,68.6,60.7,29.64,NW,315,0.0,0.0,76,0.00,,---,0.00,VWS V14.01,2013-09-13 17:44:00,
2013-09-13 13:50:00,68.4,60.9,29.64,NW,315,0.0,0.0,77,0.00,,---,0.00,VWS V14.01,2013-09-13 17:50:00,
2013-09-13 13:56:00,68.4,61.3,29.64,NW,315,0.0,0.0,78,0.00,,---,0.00,VWS V14.01,2013-09-13 17:56:00,
2013-09-13 14:01:00,68.6,62.2,29.63,NW,315,0.0,0.0,80,0.00,,---,0.00,VWS V14.01,2013-09-13 18:01:00,
2013-09-13 14:06:00,68.8,61.3,29.63,NW,315,0.0,0.0,77,0.00,,---,0.00,VWS V14.01,2013-09-13 18:06:00,
2013-09-13 14:11:00,68.8,60.9,29.63,NW,315,0.0,0.0,76,0.00,,---,0.00,VWS V14.01,2013-09-13 18:11:00,
2013-09-13 14:16:00,68.9,60.3,29.63,West,269,0.0,0.0,74,0.00,,---,0.00,VWS V14.01,2013-09-13 18:16:00,
2013-09-13 14:21:00,69.1,60.1,29.63,West,269,0.0,2.0,73,0.00,,---,0.00,VWS V14.01,2013-09-13 18:21:00,
2013-09-13 14:26:00,69.4,60.4,29.63,WNW,294,0.0,0.0,73,0.00,,---,0.00,VWS V14.01,2013-09-13 18:26:00,
2013-09-13 14:31:00,69.6,60.2,29.63,WNW,294,0.0,0.0,72,0.00,,---,0.00,VWS V14.01,2013-09-13 18:31:00,
2013-09-13 14:36:00,69.9,60.9,29.62,WSW,248,0.0,0.0,73,0.00,,---,0.00,VWS V14.01,2013-09-13 18:36:00,
2013-09-13 14:41:00,70.3,60.9,29.63,WSW,248,0.0,0.0,72,0.00,,---,0.00,VWS V14.01,2013-09-13 18:41:00,
2013-09-13 14:46:00,70.6,60.3,29.63,North,349,0.0,1.0,70,0.00,,---,0.00,VWS V14.01,2013-09-13 18:46:00,
2013-09-13 14:51:00,70.9,59.8,29.63,SSW,211,0.0,2.0,68,0.00,,---,0.00,VWS V14.01,2013-09-13 18:51:00,
2013-09-13 14:56:00,71.3,59.4,29.63,SW,221,1.0,4.0,66,0.00,,---,0.00,VWS V14.01,2013-09-13 18:56:00,
2013-09-13 15:01:00,71.6,60.5,29.63,SW,221,0.0,0.0,68,0.00,,---,0.00,VWS V14.01,2013-09-13 19:01:00,
2013-09-13 15:06:00,72.3,59.5,29.63,SW,221,0.0,3.0,64,0.00,,---,0.00,VWS V14.01,2013-09-13 19:06:00,
2013-09-13 15:11:00,73.2,61.2,29.63,West,269,0.0,2.0,66,0.00,,---,0.00,VWS V14.01,2013-09-13 19:11:00,
2013-09-13 15:16:00,73.3,58.6,29.63,WSW,241,2.0,3.0,60,0.00,,---,0.00,VWS V14.01,2013-09-13 19:16:00,
2013-09-13 15:22:00,73.0,58.3,29.63,WSW,241,2.0,4.0,60,0.00,,---,0.00,VWS V14.01,2013-09-13 19:22:00,
2013-09-13 15:27:00,73.0,57.4,29.63,WSW,241,3.0,3.0,58,0.00,,---,0.00,VWS V14.01,2013-09-13 19:27:00,
2013-09-13 15:32:00,72.8,58.1,29.63,WSW,241,0.0,1.0,60,0.00,,---,0.00,VWS V14.01,2013-09-13 19:32:00,
2013-09-13 15:37:00,72.3,58.1,29.63,WSW,237,0.0,2.0,61,0.00,,---,0.00,VWS V14.01,2013-09-13 19:37:00,
2013-09-13 15:42:00,71.8,59.4,29.64,West,266,0.0,3.0,65,0.00,,---,0.00,VWS V14.01,2013-09-13 19:42:00,
2013-09-13 15:48:00,71.1,58.8,29.64,North,351,0.0,0.0,65,0.00,,---,0.00,VWS V14.01,2013-09-13 19:48:00,
2013-09-13 15:53:00,70.4,58.1,29.64,NW,321,0.0,5.0,65,0.00,,---,0.00,VWS V14.01,2013-09-13 19:53:00,
2013-09-13 15:58:00,70.1,59.1,29.64,NW,320,0.0,0.0,68,0.00,,---,0.00,VWS V14.01,2013-09-13 19:58:00,
2013-09-13 16:04:00,69.8,58.8,29.64,NE,34,2.0,3.0,68,0.00,,---,0.00,VWS V14.01,2013-09-13 20:04:00,
2013-09-13 16:09:00,69.6,58.6,29.64,NNW,336,3.0,3.0,68,0.00,,---,0.00,VWS V14.01,2013-09-13 20:09:00,
2013-09-13 16:15:00,69.1,57.7,29.65,WSW,257,1.0,4.0,67,0.00,,---,0.00,VWS V14.01,2013-09-13 20:15:00,
2013-09-13 16:20:00,68.6,57.2,29.66,NW,323,1.0,3.0,67,0.00,,---,0.00,VWS V14.01,2013-09-13 20:20:00,
2013-09-13 16:25:00,68.1,57.6,29.66,WNW,285,2.0,3.0,69,0.00,,---,0.00,VWS V14.01,2013-09-13 20:25:00,
2013-09-13 16:30:00,67.8,57.7,29.66,West,263,1.0,1.0,70,0.00,,---,0.00,VWS V14.01,2013-09-13 20:30:00,
2013-09-13 16:35:00,67.6,57.9,29.66,NNE,19,0.0,2.0,71,0.00,,---,0.00,VWS V14.01,2013-09-13 20:35:00,
2013-09-13 16:40:00,67.4,58.1,29.65,NW,315,0.0,0.0,72,0.00,,---,0.00,VWS V14.01,2013-09-13 20:40:00,
2013-09-13 16:45:00,67.4,58.5,29.66,WSW,255,1.0,1.0,73,0.00,,---,0.00,VWS V14.01,2013-09-13 20:45:00,
2013-09-13 16:50:00,67.4,58.8,29.66,West,277,0.0,0.0,74,0.00,,---,0.00,VWS V14.01,2013-09-13 20:50:00,
2013-09-13 16:55:00,67.3,59.1,29.66,West,277,0.0,0.0,75,0.00,,---,0.00,VWS V14.01,2013-09-13 20:55:00,
2013-09-13 17:01:00,67.3,59.5,29.66,NNW,342,0.0,0.0,76,0.00,,---,0.00,VWS V14.01,2013-09-13 21:01:00,
2013-09-13 17:06:00,67.1,58.9,29.66,NW,306,0.0,0.0,75,0.00,,---,0.00,VWS V14.01,2013-09-13 21:06:00,
2013-09-13 17:12:00,66.8,57.9,29.67,NNW,338,0.0,0.0,73,0.00,,---,0.00,VWS V14.01,2013-09-13 21:12:00,
2013-09-13 17:18:00,66.6,57.3,29.67,NW,313,0.0,1.0,72,0.00,,---,0.00,VWS V14.01,2013-09-13 21:18:00,
2013-09-13 17:24:00,66.6,57.3,29.67,NW,308,1.0,3.0,72,0.00,,---,0.00,VWS V14.01,2013-09-13 21:24:00,
2013-09-13 17:29:00,66.4,57.1,29.67,West,268,0.0,1.0,72,0.00,,---,0.00,VWS V14.01,2013-09-13 21:29:00,
2013-09-13 17:34:00,66.4,56.7,29.67,NNW,331,0.0,0.0,71,0.00,,---,0.00,VWS V14.01,2013-09-13 21:34:00,
2013-09-13 17:40:00,66.3,57.4,29.68,NNW,331,0.0,0.0,73,0.00,,---,0.00,VWS V14.01,2013-09-13 21:40:00,
2013-09-13 17:46:00,66.3,57.0,29.68,NNW,331,0.0,0.0,72,0.00,,---,0.00,VWS V14.01,2013-09-13 21:46:00,
2013-09-13 17:51:00,66.3,57.0,29.69,NNW,333,0.0,2.0,72,0.00,,---,0.00,VWS V14.01,2013-09-13 21:51:00,
2013-09-13 17:56:00,66.1,56.4,29.69,North,355,0.0,0.0,71,0.00,,---,0.00,VWS V14.01,2013-09-13 21:56:00,
2013-09-13 18:02:00,65.8,56.2,29.70,NW,323,0.0,2.0,71,0.00,,---,0.00,VWS V14.01,2013-09-13 22:02:00,
2013-09-13 18:07:00,65.8,56.9,29.70,NNE,21,0.0,1.0,73,0.00,,---,0.00,VWS V14.01,2013-09-13 22:07:00,
2013-09-13 18:12:00,65.8,55.8,29.70,NNE,24,1.0,1.0,70,0.00,,---,0.00,VWS V14.01,2013-09-13 22:12:00,
2013-09-13 18:17:00,65.8,56.2,29.70,North,11,5.0,5.0,71,0.00,,---,0.00,VWS V14.01,2013-09-13 22:17:00,
2013-09-13 18:22:00,65.8,56.2,29.70,North,5,1.0,1.0,71,0.00,,---,0.00,VWS V14.01,2013-09-13 22:22:00,
2013-09-13 18:27:00,65.6,56.0,29.70,NNE,22,0.0,0.0,71,0.00,,---,0.00,VWS V14.01,2013-09-13 22:27:00,
2013-09-13 18:32:00,65.3,56.4,29.70,West,271,0.0,0.0,73,0.00,,---,0.00,VWS V14.01,2013-09-13 22:32:00,
2013-09-13 18:37:00,65.0,56.2,29.71,West,271,0.0,0.0,73,0.00,,---,0.00,VWS V14.01,2013-09-13 22:37:00,
2013-09-13 18:42:00,64.5,56.0,29.71,NW,322,0.0,0.0,74,0.00,,---,0.00,VWS V14.01,2013-09-13 22:42:00,
2013-09-13 18:47:00,64.2,56.1,29.71,NW,322,0.0,0.0,75,0.00,,---,0.00,VWS V14.01,2013-09-13 22:47:00,
2013-09-13 18:53:00,63.7,55.6,29.71,NNW,336,0.0,0.0,75,0.00,,---,0.00,VWS V14.01,2013-09-13 22:53:00,
2013-09-13 18:58:00,63.4,55.7,29.72,NNW,348,0.0,0.0,76,0.00,,---,0.00,VWS V14.01,2013-09-13 22:58:00,
2013-09-13 19:04:00,62.9,55.2,29.72,NNE,17,0.0,0.0,76,0.00,,---,0.00,VWS V14.01,2013-09-13 23:04:00,
2013-09-13 19:09:00,62.7,55.4,29.73,NNE,17,0.0,1.0,77,0.00,,---,0.00,VWS V14.01,2013-09-13 23:09:00,
2013-09-13 19:14:00,62.4,54.8,29.73,WNW,293,0.0,1.0,76,0.00,,---,0.00,VWS V14.01,2013-09-13 23:14:00,
2013-09-13 19:20:00,62.3,54.7,29.74,North,355,0.0,4.0,76,0.00,,---,0.00,VWS V14.01,2013-09-13 23:20:00,
2013-09-13 19:25:00,62.0,54.0,29.74,West,259,1.0,3.0,75,0.00,,---,0.00,VWS V14.01,2013-09-13 23:25:00,
2013-09-13 19:31:00,62.0,53.6,29.75,North,350,0.0,2.0,74,0.00,,---,0.00,VWS V14.01,2013-09-13 23:31:00,
2013-09-13 19:36:00,61.8,53.4,29.75,NNW,336,0.0,0.0,74,0.00,,---,0.00,VWS V14.01,2013-09-13 23:36:00,
2013-09-13 19:41:00,61.8,53.8,29.75,NNW,336,0.0,0.0,75,0.00,,---,0.00,VWS V14.01,2013-09-13 23:41:00,
2013-09-13 19:46:00,61.6,54.0,29.76,North,5,0.0,1.0,76,0.00,,---,0.00,VWS V14.01,2013-09-13 23:46:00,
2013-09-13 19:51:00,61.5,53.9,29.76,NNE,13,0.0,0.0,76,0.00,,---,0.00,VWS V14.01,2013-09-13 23:51:00,
2013-09-13 19:56:00,61.3,53.7,29.76,NNW,348,0.0,0.0,76,0.00,,---,0.00,VWS V14.01,2013-09-13 23:56:00,
2013-09-13 20:01:00,61.2,53.9,29.76,NE,39,0.0,0.0,77,0.00,,---,0.00,VWS V14.01,2013-09-14 00:01:00,
2013-09-13 20:07:00,61.0,53.8,29.76,NE,39,0.0,0.0,77,0.00,,---,0.00,VWS V14.01,2013-09-14 00:07:00,
2013-09-13 20:12:00,60.7,53.8,29.76,NE,39,0.0,0.0,78,0.00,,---,0.00,VWS V14.01,2013-09-14 00:12:00,
2013-09-13 20:18:00,60.5,54.0,29.76,NE,38,0.0,0.0,79,0.00,,---,0.00,VWS V14.01,2013-09-14 00:18:00,
2013-09-13 20:23:00,60.4,53.5,29.76,NE,38,0.0,1.0,78,0.00,,---,0.00,VWS V14.01,2013-09-14 00:23:00,
2013-09-13 20:28:00,60.2,53.7,29.77,NE,38,0.0,1.0,79,0.00,,---,0.00,VWS V14.01,2013-09-14 00:28:00,
2013-09-13 20:34:00,60.1,53.6,29.77,NE,38,0.0,0.0,79,0.00,,---,0.00,VWS V14.01,2013-09-14 00:34:00,
2013-09-13 20:39:00,59.9,53.4,29.77,NNE,27,0.0,1.0,79,0.00,,---,0.00,VWS V14.01,2013-09-14 00:39:00,
2013-09-13 20:44:00,59.8,52.9,29.77,West,260,0.0,1.0,78,0.00,,---,0.00,VWS V14.01,2013-09-14 00:44:00,
2013-09-13 20:49:00,59.6,52.7,29.77,NW,306,0.0,1.0,78,0.00,,---,0.00,VWS V14.01,2013-09-14 00:49:00,
2013-09-13 20:54:00,59.5,52.3,29.78,NNW,332,0.0,2.0,77,0.00,,---,0.00,VWS V14.01,2013-09-14 00:54:00,
2013-09-13 20:59:00,59.3,52.1,29.78,NE,39,0.0,2.0,77,0.00,,---,0.00,VWS V14.01,2013-09-14 00:59:00,
2013-09-13 21:04:00,59.3,52.1,29.78,NW,325,0.0,0.0,77,0.00,,---,0.00,VWS V14.01,2013-09-14 01:04:00,
2013-09-13 21:09:00,59.2,52.0,29.79,NW,325,0.0,0.0,77,0.00,,---,0.00,VWS V14.01,2013-09-14 01:09:00,
2013-09-13 21:15:00,59.0,51.8,29.79,NW,325,0.0,0.0,77,0.00,,---,0.00,VWS V14.01,2013-09-14 01:15:00,
2013-09-13 21:20:00,58.9,52.1,29.79,NW,325,0.0,0.0,78,0.00,,---,0.00,VWS V14.01,2013-09-14 01:20:00,
2013-09-13 21:25:00,58.7,51.5,29.79,NNW,334,0.0,2.0,77,0.00,,---,0.00,VWS V14.01,2013-09-14 01:25:00,
2013-09-13 21:30:00,58.7,51.9,29.79,WSW,241,0.0,0.0,78,0.00,,---,0.00,VWS V14.01,2013-09-14 01:30:00,
2013-09-13 21:35:00,58.6,51.4,29.79,NNW,329,0.0,0.0,77,0.00,,---,0.00,VWS V14.01,2013-09-14 01:35:00,
2013-09-13 21:40:00,58.4,51.2,29.79,North,9,0.0,1.0,77,0.00,,---,0.00,VWS V14.01,2013-09-14 01:40:00,
2013-09-13 21:45:00,58.4,51.2,29.79,NNW,339,0.0,1.0,77,0.00,,---,0.00,VWS V14.01,2013-09-14 01:45:00,
2013-09-13 21:50:00,58.3,51.1,29.80,North,350,0.0,0.0,77,0.00,,---,0.00,VWS V14.01,2013-09-14 01:50:00,
2013-09-13 21:56:00,58.1,50.9,29.79,WNW,300,0.0,0.0,77,0.00,,---,0.00,VWS V14.01,2013-09-14 01:56:00,
2013-09-13 22:01:00,58.0,50.8,29.80,West,263,0.0,0.0,77,0.00,,---,0.00,VWS V14.01,2013-09-14 02:01:00,
2013-09-13 22:06:00,57.8,50.7,29.80,West,263,0.0,0.0,77,0.00,,---,0.00,VWS V14.01,2013-09-14 02:06:00,
2013-09-13 22:11:00,57.6,50.5,29.80,NNE,24,0.0,0.0,77,0.00,,---,0.00,VWS V14.01,2013-09-14 02:11:00,
2013-09-13 22:16:00,57.5,50.7,29.80,WNW,298,0.0,1.0,78,0.00,,---,0.00,VWS V14.01,2013-09-14 02:16:00,
2013-09-13 22:21:00,57.3,50.2,29.80,WNW,290,0.0,0.0,77,0.00,,---,0.00,VWS V14.01,2013-09-14 02:21:00,
2013-09-13 22:26:00,57.2,50.1,29.80,North,5,0.0,0.0,77,0.00,,---,0.00,VWS V14.01,2013-09-14 02:26:00,
2013-09-13 22:31:00,57.0,49.9,29.81,NNW,337,0.0,0.0,77,0.00,,---,0.00,VWS V14.01,2013-09-14 02:31:00,
2013-09-13 22:36:00,57.0,50.2,29.81,North,360,2.0,2.0,78,0.00,,---,0.00,VWS V14.01,2013-09-14 02:36:00,
2013-09-13 22:41:00,56.9,50.1,29.81,NNW,331,0.0,1.0,78,0.00,,---,0.00,VWS V14.01,2013-09-14 02:41:00,
2013-09-13 22:47:00,56.7,49.6,29.82,NNW,344,0.0,0.0,77,0.00,,---,0.00,VWS V14.01,2013-09-14 02:47:00,
2013-09-13 22:52:00,56.7,50.3,29.81,NNW,344,0.0,1.0,79,0.00,,---,0.00,VWS V14.01,2013-09-14 02:52:00,
2013-09-13 22:57:00,56.6,49.5,29.82,North,9,0.0,1.0,77,0.00,,---,0.00,VWS V14.01,2013-09-14 02:57:00,
2013-09-13 23:03:00,56.3,49.2,29.82,WNW,294,0.0,0.0,77,0.00,,---,0.00,VWS V14.01,2013-09-14 03:03:00,
2013-09-13 23:08:00,56.3,49.2,29.82,NW,320,0.0,0.0,77,0.00,,---,0.00,VWS V14.01,2013-09-14 03:08:00,
2013-09-13 23:13:00,56.2,49.4,29.82,NNW,331,0.0,1.0,78,0.00,,---,0.00,VWS V14.01,2013-09-14 03:13:00,
2013-09-13 23:18:00,56.0,48.9,29.81,WNW,294,0.0,2.0,77,0.00,,---,0.00,VWS V14.01,2013-09-14 03:18:00,
2013-09-13 23:23:00,56.0,48.9,29.81,NNW,348,0.0,0.0,77,0.00,,---,0.00,VWS V14.01,2013-09-14 03:23:00,
2013-09-13 23:28:00,55.9,48.8,29.81,NNE,32,0.0,2.0,77,0.00,,---,0.00,VWS V14.01,2013-09-14 03:28:00,
2013-09-13 23:34:00,55.7,48.6,29.81,NNW,345,0.0,0.0,77,0.00,,---,0.00,VWS V14.01,2013-09-14 03:34:00,
2013-09-13 23:39:00,55.7,48.6,29.81,NW,325,1.0,1.0,77,0.00,,---,0.00,VWS V14.01,2013-09-14 03:39:00,
2013-09-13 23:44:00,55.6,48.5,29.81,NW,325,0.0,0.0,77,0.00,,---,0.00,VWS V14.01,2013-09-14 03:44:00,
2013-09-13 23:50:00,55.6,48.9,29.81,NW,325,0.0,0.0,78,0.00,,---,0.00,VWS V14.01,2013-09-14 03:50:00,
2013-09-13 23:55:00,55.4,48.7,29.81,NNW,338,0.0,0.0,78,0.00,,---,0.00,VWS V14.01,2013-09-14 03:55:00,